Location: Buckeye Ditch
(40.9104°N, 122.9517°W)
Time: 14:52:59
(UTC+00:00)

A-11 Canister half - Pass Details

Date: 19 May 2025
Orbit: 1515 x 1684 km, 47.2° (Epoch: 14 June)

Event Time Altitude Azimuth Distance (km) Brightness Sun altitude
Exits shadow 06:21:16 33° 120° (ESE) 2,376 9.5 -24.4°
Drops below altitude 10° 06:28:14 10° 73° (ENE) 3,704 10.9 -25.0°
Sets 06:31:35 0° 64° (ENE) 4,675 11.6 -25.2°
